Home > Weather > Windsor > Past weeks

Flag for Canada Past Weather in Windsor, Ontario, Canada — Yesterday and Last 2 Weeks

Now
77 °F

Passing clouds.


Feels Like: 79 °F
Forecast: 71 / 90 °F
Wind: 3 mph from West

Location: Windsor Weather Station

Current Time: Jul 27, 2016 at 9:39:36 AM

Latest Report: Jul 27, 2016 at 9:00 AM


Visibility: 15 mi

Pressure: 30.01 "Hg

Humidity: 69%

Dew Point: 66 °F

Location of WindsorLocation

Past Weather in Windsor — Graph

°F

Windsor Temperature Yesterday

Maximum temperature yesterday: 84 °F (at 2:00 PM)
Minimum temperature yesterday: 66 °F (at 6:00 AM)
Average temperature yesterday: 76 °F

High & Low Weather Summary for the Past Weeks

 TemperatureHumidityPressure
High93 °F (Jul 22, 3:00 PM)100% (Jul 17, 3:00 AM)30.28 "Hg (Jul 17, 3:00 AM)
Low59 °F (Jul 20, 4:00 AM)34% (Jul 23, 4:00 PM)29.77 "Hg (Jul 13, 8:00 PM)
Average76 °F70%29.99 "Hg
* Reported Jul 12 8:00 AM — Jul 27 8:00 AM, Windsor, Weather by CustomWeather, © 2016

Note: Actual official high and low records may vary slightly from our data, if they occured in-between our weather recording intervals... More about our weather records

Advertising

Windsor Weather History for the Previous 24 Hours

Scroll right to see more
 ConditionsComfort  
Time TempWeatherWind HumidityBarometerVisibility
8:00 AM
Wed, Jul 27
73 °FPassing clouds.3 mph78%30.01 "Hg15 mi
7:00 AM68 °FPassing clouds.5 mph83%30.01 "Hg15 mi
6:00 AM66 °FPassing clouds.6 mph88%30.00 "Hg15 mi
5:00 AM66 °FClear.7 mph88%29.98 "Hg15 mi
4:00 AM66 °FClear.7 mph88%29.98 "Hg15 mi
3:00 AM68 °FClear.5 mph88%29.97 "Hg15 mi
2:00 AM70 °FClear.6 mph78%29.98 "Hg15 mi
1:00 AM70 °FPassing clouds.No wind78%29.98 "Hg15 mi
12:00 AM70 °FPassing clouds.3 mph78%29.99 "Hg15 mi
11:00 PM
Tue, Jul 26
70 °FClear.7 mph78%29.99 "Hg15 mi
10:00 PM72 °FPassing clouds.7 mph78%29.99 "Hg15 mi
9:00 PM75 °FPassing clouds.6 mph65%29.99 "Hg15 mi
8:00 PM81 °FPassing clouds.8 mph51%29.98 "Hg15 mi
7:00 PM82 °FPassing clouds.8 mph55%29.98 "Hg15 mi
6:00 PM84 °FScattered clouds.9 mph51%29.98 "Hg15 mi
5:00 PM84 °FBroken clouds.8 mph55%29.99 "Hg15 mi
4:00 PM82 °FPartly sunny.6 mph55%30.00 "Hg15 mi
3:00 PM84 °FBroken clouds.12 mph48%30.01 "Hg15 mi
2:00 PM84 °FScattered clouds.8 mph45%30.03 "Hg15 mi
1:00 PM82 °FPassing clouds.3 mph48%30.04 "Hg15 mi
12:00 PM81 °FPassing clouds.3 mph48%30.06 "Hg15 mi
11:00 AM81 °FPassing clouds.6 mph48%30.05 "Hg15 mi
10:00 AM77 °FPassing clouds.No wind69%30.05 "Hg15 mi
9:00 AM73 °FPassing clouds.3 mph78%30.06 "Hg15 mi
Weather by CustomWeather, © 2016

See weather overviewHow to use our weather pages